This is the latest recevied weather packets stored in our database for station/object N4AR. If no packets are shown the sender has not sent any weather packets the latest 1 day(s).
| Time | Temp. | Humidity | Pressure | Rain* | Wind** | Luminosity | Snow |
|---|---|---|---|---|---|---|---|
| 1777976084 | 15° C | 72% | 1015.4 hPa | 0 mm | 0.45 m/s, 112° | 3 W/m² | - |
| 1777975780 | 15° C | 72% | 1015.4 hPa | 0 mm | 0 m/s | 2 W/m² | - |
| 1777975477 | 15° C | 72% | 1015.4 hPa | 0 mm | 0.45 m/s, 162° | 1 W/m² | - |
| 1777975173 | 15° C | 72% | 1015.2 hPa | 0 mm | 0.45 m/s, 75° | 0 W/m² | - |
| 1777974870 | 15° C | 72% | 1015.2 hPa | 0 mm | 0 m/s | 0 W/m² | - |
| 1777974566 | 15° C | 72% | 1015.1 hPa | 0 mm | 0.45 m/s, 78° | 0 W/m² | - |
| 1777974263 | 15° C | 71% | 1015.3 hPa | 0 mm | 0.45 m/s, 149° | 0 W/m² | - |
| 1777973959 | 15° C | 71% | 1015.3 hPa | 0 mm | 0.89 m/s, 88° | 0 W/m² | - |
| 1777973656 | 15° C | 71% | 1015.1 hPa | 0 mm | 0 m/s | 0 W/m² | - |
| 1777973353 | 15° C | 71% | 1015.1 hPa | 0 mm | 0 m/s | 0 W/m² | - |
| 1777973051 | 15° C | 71% | 1015.1 hPa | 0 mm | 0.45 m/s, 59° | 0 W/m² | - |
| 1777972748 | 15° C | 71% | 1014.9 hPa | 0 mm | 0.45 m/s, 101° | 0 W/m² | - |
| 1777972446 | 15° C | 70% | 1015 hPa | 0 mm | 0.45 m/s, 77° | 0 W/m² | - |
| 1777972144 | 15.56° C | 70% | 1015 hPa | 0 mm | 0.45 m/s, 58° | 0 W/m² | - |
| 1777971842 | 15.56° C | 70% | 1014.8 hPa | 0 mm | 0 m/s | 0 W/m² | - |
| 1777971539 | 15.56° C | 69% | 1014.9 hPa | 0 mm | 0.45 m/s, 119° | 0 W/m² | - |
| 1777971237 | 15.56° C | 70% | 1014.8 hPa | 0 mm | 0.45 m/s, 86° | 0 W/m² | - |
| 1777970935 | 15.56° C | 69% | 1015 hPa | 0 mm | 0.45 m/s, 91° | 0 W/m² | - |
| 1777970633 | 15.56° C | 69% | 1015 hPa | 0 mm | 0.45 m/s, 75° | 0 W/m² | - |
| 1777970330 | 15.56° C | 68% | 1015 hPa | 0 mm | 0 m/s | 0 W/m² | - |
| 1777970027 | 15.56° C | 68% | 1014.9 hPa | 0 mm | 0.89 m/s, 75° | 0 W/m² | - |
| 1777969724 | 15.56° C | 68% | 1015 hPa | 0 mm | 0 m/s | 0 W/m² | - |
| 1777969419 | 16.11° C | 68% | 1014.7 hPa | 0 mm | 0.45 m/s, 81° | 0 W/m² | - |
| 1777969116 | 16.11° C | 68% | 1014.9 hPa | 0 mm | 0.89 m/s, 24° | 0 W/m² | - |
| 1777968813 | 16.11° C | 67% | 1014.8 hPa | 0 mm | 0.45 m/s, 59° | 0 W/m² | - |
* Rain latest hour (hover to see other rain measurements)
** Current wind speed in m/s (hover to see current wind gust speed)